Location: Anglesey
(53.1800°N, 4.2200°W)
Time: 08:52:20
(UTC+01:00)

ISS - Pass Details

Date: 09 October 2017
Orbit: 401 x 408 km, 51.6° (Epoch: 18 October)

Event Time Altitude Azimuth Distance (km) Brightness Sun altitude
Rises 19:18:49 0° 274° (W) 2,324 2.5 -7.4°
Reaches altitude 10° 19:20:55 10° 270° (W) 1,465 0.8 -7.8°
Maximum altitude 19:24:09 59° 191° (S) 477 -3.4 -8.2°
Enters shadow 19:27:16 11° 111° (ESE) 1,418 -1.7 -8.7°
